| time (UTC) | temp C | wind direction | speed KPH | gust KPH | rain 1hr cm | rain 24hr cm | rain mn cm | humidity % | barometer mb |
| 20260509011823 | 13 | 191 | 0.0 | 0.0 | 0.00 | 0.00 | 0.00 | 77 | 1015.8 |
| 20260509010323 | 13 | 191 | 0.0 | 0.0 | 0.00 | 0.00 | 0.00 | 77 | 1015.9 |
| 20260509004826 | 13 | 191 | 0.0 | 0.0 | 0.00 | 0.00 | 0.00 | 76 | 1015.8 |
| 20260509003325 | 13 | 191 | 0.0 | 0.0 | 0.00 | 0.00 | 0.00 | 75 | 1015.6 |
| 20260509001827 | 14 | 191 | 0.0 | 0.0 | 0.00 | 0.00 | 0.00 | 75 | 1015.5 |
| 20260509000327 | 14 | 191 | 0.0 | 0.0 | 0.00 | 0.00 | 0.00 | 72 | 1015.4 |
| 20260508234830 | 15 | 191 | 0.0 | 1.6 | 0.00 | 0.00 | 0.00 | 73 | 1015.4 |
| 20260508233348 | 15 | 191 | 0.0 | 1.6 | 0.00 | 0.00 | 0.00 | 74 | 1015.4 |
| 20260508231845 | 15 | 191 | 0.0 | 0.0 | 0.00 | 0.00 | 0.00 | 73 | 1015.6 |
| 20260508230328 | 15 | 191 | 0.0 | 0.0 | 0.00 | 0.00 | 0.00 | 72 | 1015.5 |
| 20260508224827 | 15 | 191 | 0.0 | 1.6 | 0.00 | 0.00 | 0.00 | 70 | 1015.4 |
| 20260508223330 | 15 | 191 | 0.0 | 3.2 | 0.00 | 0.00 | 0.00 | 72 | 1015.4 |
| 20260508221828 | 15 | 191 | 0.0 | 1.6 | 0.00 | 0.00 | 0.00 | 70 | 1015.4 |
| 20260508220312 | 16 | 191 | 0.0 | 3.2 | 0.00 | 0.00 | 0.00 | 70 | 1015.4 |
| 20260508214831 | 16 | 191 | 0.0 | 4.8 | 0.00 | 0.00 | 0.00 | 67 | 1015.2 |
| 20260508213314 | 16 | 215 | 0.0 | 3.2 | 0.00 | 0.00 | 0.00 | 66 | 1015.5 |
| 20260508211852 | 16 | 288 | 0.0 | 3.2 | 0.00 | 0.00 | 0.00 | 65 | 1015.3 |
| 20260508210331 | 16 | 288 | 1.6 | 3.2 | 0.00 | 0.00 | 0.00 | 63 | 1015.3 |
| 20260508204813 | 16 | 322 | 0.0 | 3.2 | 0.00 | 0.00 | 0.00 | 66 | 1015.4 |
| 20260508203312 | 16 | 313 | 0.0 | 3.2 | 0.00 | 0.00 | 0.00 | 64 | 1015.6 |
| 20260508201836 | 16 | 313 | 0.0 | 1.6 | 0.00 | 0.00 | 0.00 | 63 | 1015.5 |
| 20260508200335 | 16 | 297 | 0.0 | 1.6 | 0.00 | 0.00 | 0.00 | 62 | 1015.6 |
| 20260508194837 | 16 | 297 | 0.0 | 3.2 | 0.00 | 0.00 | 0.00 | 63 | 1015.9 |
| 20260508193335 | 16 | 250 | 1.6 | 3.2 | 0.00 | 0.00 | 0.00 | 61 | 1016.3 |
| 20260508191812 | 16 | 95 | 3.2 | 4.8 | 0.00 | 0.00 | 0.00 | 59 | 1016.5 |
| 20260508190315 | 16 | 95 | 0.0 | 4.8 | 0.00 | 0.00 | 0.00 | 58 | 1016.6 |
| 20260508184814 | 16 | 94 | 1.6 | 3.2 | 0.00 | 0.03 | 0.00 | 60 | 1017.0 |
| 20260508183314 | 16 | 88 | 1.6 | 3.2 | 0.00 | 0.03 | 0.00 | 62 | 1017.2 |
| 20260508181812 | 16 | 90 | 1.6 | 4.8 | 0.00 | 0.03 | 0.00 | 62 | 1017.2 |
| 20260508180315 | 16 | 91 | 1.6 | 3.2 | 0.00 | 0.03 | 0.00 | 60 | 1017.3 |
| 20260508174814 | 16 | 100 | 0.0 | 3.2 | 0.00 | 0.03 | 0.00 | 57 | 1017.4 |
| 20260508173337 | 16 | 101 | 1.6 | 4.8 | 0.00 | 0.03 | 0.00 | 59 | 1017.7 |
| 20260508171813 | 16 | 82 | 0.0 | 4.8 | 0.00 | 0.03 | 0.00 | 57 | 1017.8 |
| 20260508170312 | 16 | 82 | 0.0 | 1.6 | 0.00 | 0.03 | 0.00 | 60 | 1018.2 |
| 20260508164815 | 16 | 70 | 1.6 | 3.2 | 0.00 | 0.03 | 0.00 | 63 | 1018.3 |
| 20260508163314 | 16 | 293 | 1.6 | 4.8 | 0.00 | 0.03 | 0.00 | 62 | 1018.5 |
| 20260508161817 | 15 | 49 | 0.0 | 4.8 | 0.00 | 0.03 | 0.00 | 64 | 1018.4 |
| 20260508160315 | 15 | 86 | 1.6 | 3.2 | 0.00 | 0.03 | 0.00 | 63 | 1018.7 |
| 20260508154817 | 14 | 299 | 0.0 | 1.6 | 0.00 | 0.03 | 0.00 | 67 | 1018.8 |
| 20260508153317 | 14 | 298 | 3.2 | 4.8 | 0.00 | 0.03 | 0.00 | 63 | 1018.9 |
| 20260508151841 | 14 | 298 | 1.6 | 4.8 | 0.00 | 0.03 | 0.00 | 65 | 1019.0 |
| 20260508150318 | 14 | 299 | 0.0 | 3.2 | 0.00 | 0.03 | 0.00 | 61 | 1019.0 |
| 20260508144821 | 13 | 300 | 0.0 | 0.0 | 0.00 | 0.03 | 0.00 | 64 | 1019.0 |
| 20260508143319 | 13 | 300 | 0.0 | 3.2 | 0.00 | 0.03 | 0.00 | 65 | 1019.0 |
| 20260508141818 | 12 | 117 | 0.0 | 0.0 | 0.00 | 0.03 | 0.00 | 67 | 1019.2 |
| 20260508140340 | 12 | 117 | 0.0 | 3.2 | 0.00 | 0.03 | 0.00 | 67 | 1019.2 |
| 20260508134817 | 12 | 117 | 0.0 | 0.0 | 0.00 | 0.05 | 0.00 | 68 | 1019.3 |
| 20260508133321 | 11 | 117 | 0.0 | 0.0 | 0.00 | 0.05 | 0.00 | 77 | 1019.4 |
| 20260508131820 | 11 | 117 | 0.0 | 0.0 | 0.00 | 0.05 | 0.00 | 78 | 1019.2 |
| 20260508130343 | 10 | 117 | 0.0 | 1.6 | 0.00 | 0.05 | 0.00 | 86 | 1019.2 |
| 20260508124842 | 8 | 69 | 0.0 | 0.0 | 0.00 | 0.15 | 0.00 | 90 | 1019.2 |
| 20260508123319 | 8 | 69 | 0.0 | 0.0 | 0.00 | 0.15 | 0.00 | 92 | 1018.9 |
| 20260508121821 | 7 | 69 | 0.0 | 0.0 | 0.00 | 0.15 | 0.00 | 93 | 1018.8 |
| 20260508120341 | 7 | 69 | 0.0 | 0.0 | 0.00 | 0.15 | 0.00 | 92 | 1018.7 |
| 20260508114822 | 7 | 69 | 0.0 | 0.0 | 0.00 | 0.28 | 0.00 | 92 | 1018.6 |
| 20260508113321 | 7 | 69 | 0.0 | 0.0 | 0.00 | 0.28 | 0.00 | 92 | 1018.4 |
| 20260508111823 | 7 | 69 | 0.0 | 0.0 | 0.00 | 0.28 | 0.00 | 92 | 1018.0 |
| 20260508110323 | 6 | 69 | 0.0 | 1.6 | 0.00 | 0.28 | 0.00 | 91 | 1017.6 |
| 20260508104825 | 6 | 69 | 0.0 | 0.0 | 0.00 | 0.43 | 0.00 | 91 | 1017.6 |
| 20260508103325 | 6 | 69 | 0.0 | 1.6 | 0.00 | 0.43 | 0.00 | 90 | 1017.4 |
| 20260508101843 | 7 | 69 | 0.0 | 0.0 | 0.00 | 0.43 | 0.00 | 90 | 1017.3 |
| 20260508100326 | 7 | 69 | 0.0 | 0.0 | 0.00 | 0.43 | 0.00 | 90 | 1017.0 |
| 20260508094824 | 7 | 69 | 0.0 | 0.0 | 0.00 | 0.46 | 0.00 | 89 | 1016.8 |
| 20260508093327 | 7 | 69 | 0.0 | 0.0 | 0.00 | 0.46 | 0.00 | 90 | 1016.8 |
| 20260508091825 | 7 | 69 | 0.0 | 0.0 | 0.00 | 0.46 | 0.00 | 90 | 1016.8 |
| 20260508090329 | 8 | 69 | 0.0 | 0.0 | 0.00 | 0.46 | 0.00 | 90 | 1016.8 |
| 20260508084828 | 8 | 69 | 0.0 | 0.0 | 0.00 | 0.46 | 0.00 | 90 | 1016.7 |
| 20260508083331 | 8 | 69 | 0.0 | 0.0 | 0.00 | 0.46 | 0.00 | 90 | 1016.7 |
| 20260508081829 | 8 | 69 | 0.0 | 1.6 | 0.00 | 0.46 | 0.00 | 89 | 1016.6 |
| 20260508080313 | 8 | 69 | 0.0 | 1.6 | 0.00 | 0.46 | 0.00 | 89 | 1016.5 |
| 20260508074811 | 8 | 69 | 0.0 | 1.6 | 0.00 | 0.48 | 0.00 | 89 | 1016.3 |
| 20260508073314 | 9 | 69 | 0.0 | 1.6 | 0.00 | 0.48 | 0.00 | 89 | 1016.3 |
| 20260508071813 | 9 | 69 | 0.0 | 1.6 | 0.00 | 0.48 | 0.00 | 88 | 1016.1 |
| 20260508070333 | 9 | 69 | 0.0 | 3.2 | 0.00 | 0.48 | 0.00 | 89 | 1016.2 |
| 20260508064814 | 9 | 69 | 0.0 | 1.6 | 0.00 | 0.51 | 0.00 | 89 | 1015.7 |
| 20260508063313 | 8 | 69 | 0.0 | 1.6 | 0.00 | 0.51 | 0.00 | 90 | 1015.8 |
| 20260508061816 | 8 | 69 | 0.0 | 1.6 | 0.00 | 0.51 | 0.00 | 91 | 1016.0 |
| 20260508060336 | 8 | 69 | 0.0 | 0.0 | 0.00 | 0.51 | 0.00 | 90 | 1016.0 |
| 20260508054817 | 8 | 69 | 0.0 | 1.6 | 0.00 | 0.66 | 0.00 | 90 | 1016.1 |
| 20260508053315 | 8 | 69 | 0.0 | 1.6 | 0.00 | 0.66 | 0.00 | 90 | 1016.2 |
| 20260508051819 | 8 | 69 | 0.0 | 1.6 | 0.00 | 0.66 | 0.00 | 90 | 1016.2 |
| 20260508050317 | 8 | 69 | 0.0 | 0.0 | 0.00 | 0.66 | 0.00 | 89 | 1016.0 |
| 20260508044819 | 8 | 69 | 0.0 | 0.0 | 0.00 | 0.84 | 0.00 | 89 | 1015.9 |
| 20260508043318 | 9 | 69 | 0.0 | 0.0 | 0.00 | 0.84 | 0.00 | 88 | 1015.9 |
| 20260508041816 | 9 | 69 | 0.0 | 0.0 | 0.00 | 0.84 | 0.00 | 88 | 1015.8 |
| 20260508040320 | 9 | 69 | 0.0 | 1.6 | 0.00 | 0.84 | 0.00 | 87 | 1015.8 |
| 20260508034816 | 10 | 69 | 0.0 | 1.6 | 0.00 | 0.84 | 0.84 | 87 | 1015.7 |
| 20260508033320 | 10 | 69 | 0.0 | 3.2 | 0.00 | 0.84 | 0.84 | 86 | 1015.8 |
| 20260508031839 | 10 | 69 | 1.6 | 1.6 | 0.00 | 0.84 | 0.84 | 86 | 1015.9 |
| 20260508030321 | 10 | 69 | 1.6 | 3.2 | 0.00 | 0.84 | 0.84 | 86 | 1015.6 |
| 20260508024819 | 10 | 69 | 0.0 | 0.0 | 0.00 | 0.99 | 0.84 | 86 | 1015.5 |
| 20260508023343 | 10 | 69 | 0.0 | 0.0 | 0.00 | 0.99 | 0.84 | 85 | 1015.2 |
| 20260508021820 | 10 | 69 | 0.0 | 0.0 | 0.00 | 0.99 | 0.84 | 85 | 1015.1 |
| 20260508020340 | 10 | 69 | 0.0 | 3.2 | 0.00 | 0.99 | 0.84 | 84 | 1015.0 |
| 20260508014821 | 11 | 69 | 1.6 | 3.2 | 0.00 | 1.02 | 0.84 | 84 | 1014.8 |
| 20260508013319 | 11 | 69 | 1.6 | 3.2 | 0.00 | 1.02 | 0.84 | 83 | 1014.6 |